Flag for Argentina Weather past 2 weeks in Salta, Salta, Argentina

Now
48 °F

Sunny.


Feels Like: 48 °F
Forecast: 58 / 81 °F
Wind: No wind

Location: Salta Aerodrome

Current Time: Aug 20, 2014 at 7:50:15 AM

Latest Report: Aug 20, 2014 at 7:00 AM


Visibility: 10 mi

Pressure: 30.09 "Hg

Humidity: 87%

Dew point: 45 °F

Location of SaltaLocation

Historic Weather in Salta — Graph

°F

Salta temperature yesterday

Maximum temperature yesterday: 81 °F (at 2:00 PM)
Minimum temperature yesterday: 46 °F (at 6:00 AM)
Average temperature yesterday: 64 °F

Past Weeks' High & Low Weather Summary

 TemperatureHumidityPressure
High90 °F (Aug 6, 5:00 PM)100% (Aug 13, 12:00 AM)30.57 "Hg (Aug 13, 12:00 AM)
Low34 °F (Aug 14, 4:00 AM)9% (Aug 6, 4:00 PM)29.80 "Hg (Aug 6, 3:00 PM)
Average56 °F58%30.20 "Hg
* Reported Aug 5 6:00 AM — Aug 20 6:00 AM, Salta, Weather by CustomWeather, © 2014

Note: Actual official high and low records may vary slightly from our data, if they occured in-between our weather recording intervals... More about our weather records

Advertising

Salta weather history for previous 24 hours

 ConditionsComfort  
Time TempWeatherWind HumidityBarometerVisibility
6:00 AM
Aug 20
52 °FClear.No wind77%30.09 "Hg10 mi
5:00 AM50 °FClear.No wind82%30.09 "Hg10 mi
4:00 AM50 °FClear.2 mph82%30.09 "Hg10 mi
3:00 AM54 °FClear.3 mph72%30.12 "Hg10 mi
2:00 AM52 °FClear.No wind82%30.15 "Hg10 mi
1:00 AM57 °FClear.6 mph67%30.15 "Hg10 mi
12:00 AM54 °FClear.No wind72%30.18 "Hg10 mi
11:00 PM
Aug 19
55 °FPassing clouds.3 mph67%30.18 "HgN/A
10:00 PM59 °FClear.2 mph63%30.18 "Hg10 mi
9:00 PM64 °FClear.2 mph56%30.15 "Hg10 mi
8:00 PM70 °FClear.6 mph43%30.15 "Hg10 mi
7:00 PM73 °FClear.8 mph36%30.12 "Hg10 mi
6:00 PM79 °FPassing clouds.14 mph26%30.09 "HgN/A
5:00 PM81 °FSunny.13 mph24%30.09 "Hg10 mi
4:00 PM81 °FSunny.13 mph32%30.09 "Hg10 mi
3:00 PM81 °FSunny.10 mph32%30.12 "Hg10 mi
2:00 PM81 °FSunny.2 mph30%30.15 "Hg10 mi
1:00 PM77 °FSunny.2 mph34%30.18 "Hg10 mi
12:00 PM72 °FSunny.3 mph44%30.21 "Hg10 mi
11:00 AM66 °FSunny.No wind49%30.21 "Hg10 mi
10:00 AM61 °FSunny.2 mph63%30.21 "Hg10 mi
9:00 AM52 °FSunny.No wind82%30.21 "Hg10 mi
8:00 AM46 °FSunny.2 mph93%30.18 "Hg10 mi
7:00 AM48 °FSunny.No wind87%30.18 "Hg10 mi
Weather by CustomWeather, © 2014

See weather overviewHow to use our weather pages